Weather History for Effingham, IL

Change the Weather History Date:

Friday, November 2, 2012

  Actual Average (KMTO) Record (KMTO)
Temperature  
Mean Temperature 44 °F 49 °F  
Max Temperature 53 °F 59 °F 77 °F (1961)
Min Temperature 35 °F 39 °F 14 °F (1951)
Degree Days  
Heating Degree Days 21 16  
Month to date heating degree days 32  
Since 1 July heating degree days 436  
Cooling Degree Days 0 0  
Month to date cooling degree days 0  
Year to date cooling degree days 1057  
Moisture  
Dew Point 32 °F    
Average Humidity 65    
Maximum Humidity 81    
Minimum Humidity 45    
Precipitation  
Precipitation 0.00 in 0.11 in 1.24 in (1948)
Month to date precipitation 0.25  
Year to date precipitation 32.05  
Sea Level Pressure  
Sea Level Pressure 30.02 in    
Wind  
Wind Speed 3 mph (North)    
Max Wind Speed 7 mph    
Max Gust Speed -    
Visibility 10 miles    
Events      
T = Trace of Precipitation, MM = Missing Value Source: NWS Daily Summary

Daily Weather History Graph

Daily Weather History Graph

Search for Another Location

Airport:

Trip Planner

Search our weather history database for the weather conditions in past years. The results will help you decide how hot, cold, wet, or windy it might be!

Date:

Astronomy

Nov. 02, 2012 Rise Set
Actual Time 7:23 AM CDT 5:51 PM CDT
Civil Twilight 6:55 AM CDT 6:19 PM CDT
Nautical Twilight 6:23 AM CDT 6:50 PM CDT
Astronomical Twilight 5:52 AM CDT 7:22 PM CDT
Moon 8:39 PM CDT (11/2) 10:42 AM CDT (11/2)
Length of Visible Light 11h 23m
Length of Day
10h 28m
Waning Gibbous, 87% of the Moon is Illuminated
Nov 2
Waning Gibbous
Nov 6
Last Quarter
Nov 13
New
Nov 20
First Quarter
Nov 28
Full

Hourly Weather History & Observations

Time (CDT) Temp. Windchill Dew Point Humidity Pressure Visibility Wind Dir Wind Speed Gust Speed Precip Events Conditions
12:15 AM 41.2 °F - 33.8 °F 75% 29.88 in 10.0 mi Calm Calm - N/A   Clear
12:35 AM 42.1 °F 39.2 °F 34.7 °F 75% 29.88 in 10.0 mi West 4.6 mph - N/A   Clear
12:55 AM 41.7 °F - 34.5 °F 76% 29.88 in 10.0 mi Calm Calm - N/A   Clear
1:15 AM 40.3 °F 38.2 °F 34.2 °F 79% 29.88 in 10.0 mi West 3.5 mph - N/A   Clear
1:35 AM 38.7 °F 36.3 °F 33.4 °F 81% 29.88 in 10.0 mi WNW 3.5 mph - N/A   Clear
1:55 AM 39.4 °F 37.2 °F 34.0 °F 81% 29.89 in 10.0 mi NNW 3.5 mph - N/A   Clear
2:15 AM 42.1 °F 38.4 °F 34.9 °F 76% 29.89 in 10.0 mi NW 5.8 mph - N/A   Clear
2:35 AM 41.4 °F 37.6 °F 34.3 °F 76% 29.90 in 10.0 mi NW 5.8 mph - N/A   Clear
2:55 AM 41.0 °F 38.0 °F 34.0 °F 76% 29.90 in 10.0 mi NNW 4.6 mph - N/A   Clear
3:15 AM 41.4 °F 37.6 °F 33.8 °F 74% 29.90 in 10.0 mi NNW 5.8 mph - N/A   Clear
3:35 AM 41.7 °F 38.0 °F 33.4 °F 72% 29.91 in 10.0 mi NNW 5.8 mph - N/A   Clear
3:55 AM 40.8 °F 37.8 °F 32.7 °F 73% 29.93 in 10.0 mi NNW 4.6 mph - N/A   Clear
4:15 AM 39.7 °F 36.5 °F 32.0 °F 74% 29.93 in 10.0 mi North 4.6 mph - N/A   Clear
4:35 AM 40.1 °F 36.1 °F 32.0 °F 73% 29.94 in 10.0 mi North 5.8 mph - N/A   Clear
4:55 AM 39.2 °F 35.0 °F 32.0 °F 75% 29.95 in 10.0 mi North 5.8 mph - N/A   Clear
5:15 AM 38.8 °F 34.6 °F 32.0 °F 76% 29.95 in 10.0 mi North 5.8 mph - N/A   Clear
5:35 AM 38.3 °F 33.9 °F 32.0 °F 78% 29.96 in 10.0 mi North 5.8 mph - N/A   Clear
5:55 AM 38.1 °F 34.6 °F 31.8 °F 78% 29.97 in 10.0 mi North 4.6 mph - N/A   Clear
6:15 AM 37.0 °F 34.5 °F 31.3 °F 80% 29.98 in 10.0 mi North 3.5 mph - N/A   Clear
6:35 AM 36.5 °F 33.9 °F 31.1 °F 81% 29.99 in 10.0 mi North 3.5 mph - N/A   Clear
6:55 AM 36.0 °F 33.3 °F 30.6 °F 81% 30.00 in 10.0 mi North 3.5 mph - N/A   Clear
7:15 AM 35.6 °F 32.8 °F 30.2 °F 81% 30.00 in 10.0 mi North 3.5 mph - N/A   Clear
7:35 AM 35.2 °F - 29.8 °F 81% 30.01 in 7.0 mi Calm Calm - N/A   Clear
7:55 AM 35.6 °F - 29.8 °F 80% 30.02 in 7.0 mi Calm Calm - N/A   Clear
8:15 AM 36.7 °F - 30.2 °F 77% 30.04 in 10.0 mi Calm Calm - N/A   Clear
8:55 AM 39.6 °F 35.4 °F 30.4 °F 70% 30.05 in 10.0 mi NNE 5.8 mph - N/A   Clear
9:15 AM 41.0 °F 38.0 °F 30.7 °F 67% 30.06 in 10.0 mi NNE 4.6 mph - N/A   Clear
9:35 AM 42.6 °F 39.0 °F 32.0 °F 66% 30.07 in 10.0 mi North 5.8 mph - N/A   Clear
9:55 AM 43.5 °F 39.4 °F 32.0 °F 64% 30.08 in 10.0 mi North 6.9 mph - N/A   Clear
10:15 AM 44.8 °F 43.3 °F 32.9 °F 63% 30.08 in 10.0 mi NNE 3.5 mph - N/A   Clear
10:35 AM 45.9 °F 43.6 °F 33.4 °F 62% 30.08 in 10.0 mi North 4.6 mph - N/A   Clear
10:55 AM 47.1 °F - 33.3 °F 59% 30.08 in 10.0 mi NE 4.6 mph - N/A   Clear
11:15 AM 48.2 °F - 33.6 °F 57% 30.08 in 10.0 mi NNE 3.5 mph - N/A   Clear
11:35 AM 49.3 °F - 34.2 °F 56% 30.07 in 10.0 mi North 6.9 mph - N/A   Clear
11:55 AM 49.3 °F - 32.4 °F 52% 30.08 in 10.0 mi North 5.8 mph - N/A   Clear
12:15 PM 48.9 °F - 31.5 °F 51% 30.08 in 10.0 mi Calm Calm - N/A   Clear
12:35 PM 50.0 °F - 31.1 °F 48% 30.07 in 10.0 mi ENE 4.6 mph - N/A   Clear
12:55 PM 51.3 °F - 32.0 °F 48% 30.07 in 10.0 mi NNW 3.5 mph - N/A   Clear
1:15 PM 51.1 °F - 32.0 °F 48% 30.07 in 10.0 mi ENE 5.8 mph - N/A   Clear
1:35 PM 50.9 °F - 32.0 °F 48% 30.06 in 7.0 mi Calm Calm - N/A   Clear
1:55 PM 50.5 °F - 32.2 °F 49% 30.06 in 10.0 mi Calm Calm - N/A   Clear
2:15 PM 52.0 °F - 32.5 °F 48% 30.06 in 10.0 mi North 6.9 mph - N/A   Clear
2:35 PM 52.5 °F - 31.8 °F 45% 30.05 in 7.0 mi North 3.5 mph - N/A   Clear
2:55 PM 52.5 °F - 32.2 °F 46% 30.05 in 7.0 mi NNE 6.9 mph - N/A   Clear
3:15 PM 53.4 °F - 32.5 °F 45% 30.05 in 10.0 mi North 4.6 mph - N/A   Clear
3:35 PM 52.7 °F - 32.4 °F 46% 30.05 in 10.0 mi ENE 5.8 mph - N/A   Clear
3:55 PM 53.1 °F - 32.5 °F 46% 30.05 in 10.0 mi NNE 4.6 mph - N/A   Clear
4:15 PM 53.1 °F - 32.7 °F 46% 30.05 in 10.0 mi NE 3.5 mph - N/A   Clear
4:35 PM 52.7 °F - 32.9 °F 47% 30.05 in 10.0 mi NE 3.5 mph - N/A   Clear
4:55 PM 51.8 °F - 32.2 °F 47% 30.06 in 10.0 mi Calm Calm - N/A   Clear
5:15 PM 50.9 °F - 32.2 °F 49% 30.06 in 10.0 mi Calm Calm - N/A   Clear
5:35 PM 49.3 °F - 32.5 °F 53% 30.05 in 10.0 mi Calm Calm - N/A   Clear
5:55 PM 47.8 °F - 32.7 °F 56% 30.05 in 10.0 mi Calm Calm - N/A   Clear
6:15 PM 45.1 °F - 34.2 °F 65% 30.06 in 10.0 mi Calm Calm - N/A   Clear
6:55 PM 42.8 °F - 33.3 °F 69% 30.07 in 10.0 mi Calm Calm - N/A   Clear
7:15 PM 41.4 °F - 32.9 °F 72% 30.07 in 10.0 mi Calm Calm - N/A   Clear
7:35 PM 40.3 °F - 33.6 °F 77% 30.08 in 10.0 mi Calm Calm - N/A   Clear
7:55 PM 39.6 °F - 33.3 °F 78% 30.08 in 10.0 mi Calm Calm - N/A   Clear
8:15 PM 38.7 °F - 32.5 °F 79% 30.07 in 10.0 mi Calm Calm - N/A   Clear
8:35 PM 39.0 °F 36.8 °F 32.9 °F 79% 30.07 in 10.0 mi ENE 3.5 mph - N/A   Clear
8:55 PM 42.6 °F 40.9 °F 32.0 °F 66% 30.06 in 10.0 mi ENE 3.5 mph - N/A   Clear
9:15 PM 43.0 °F - 32.0 °F 65% 30.07 in 10.0 mi Calm Calm - N/A   Clear
9:35 PM 42.1 °F - 32.0 °F 67% 30.07 in 10.0 mi Calm Calm - N/A   Clear
9:55 PM 43.5 °F 41.9 °F 31.5 °F 63% 30.08 in 10.0 mi ENE 3.5 mph - N/A   Clear
10:15 PM 43.7 °F 42.1 °F 31.1 °F 61% 30.08 in 10.0 mi ENE 3.5 mph - N/A   Clear
10:35 PM 43.7 °F 42.1 °F 30.7 °F 60% 30.08 in 10.0 mi ENE 3.5 mph - N/A   Clear
10:55 PM 43.5 °F - 30.2 °F 59% 30.09 in 10.0 mi Calm Calm - N/A   Clear
11:15 PM 43.2 °F 41.5 °F 30.6 °F 61% 30.09 in 10.0 mi NE 3.5 mph - N/A   Clear
11:35 PM 42.8 °F - 30.7 °F 62% 30.10 in 10.0 mi Calm Calm - N/A   Clear
11:55 PM 42.4 °F - 30.4 °F 62% 30.10 in 10.0 mi Calm Calm - N/A   Clear